HVN1375 VVPB-VVTS

Flight info

Callsign HVN1375
Flight time 1h 5m
Altitude 32000
Route SADIN Q1 DOVIN
Aircraft A21N/M-L/L

Departure

Time 2026-04-21 05:07
Airport Phu Bai International Airport (VVPB)

Arrival

Time 2026-04-21 06:13
Airport Tan Son Nhat International Airport (VVTS)
Time Latitude Longitude Altitude Speed Heading
2026-04-21 04:42 16.39733 107.70423 54 ft 0 kts 183°
2026-04-21 04:53 16.39734 107.70423 54 ft 0 kts 183°
2026-04-21 04:53 16.39748 107.70424 54 ft 2 kts 183°
2026-04-21 04:54 16.39763 107.70425 54 ft 2 kts 183°
2026-04-21 04:54 16.39778 107.70426 54 ft 2 kts 183°
2026-04-21 04:54 16.39793 107.70427 54 ft 2 kts 183°
2026-04-21 04:54 16.39807 107.70431 54 ft 2 kts 216°
2026-04-21 04:55 16.39818 107.70443 54 ft 2 kts 241°
2026-04-21 04:55 16.39822 107.70458 54 ft 1 kts 266°
2026-04-21 04:55 16.39822 107.70464 54 ft 1 kts 276°
2026-04-21 04:55 16.39822 107.70467 54 ft 0 kts 274°
2026-04-21 04:57 16.39821 107.70476 54 ft 2 kts 274°
2026-04-21 04:57 16.39821 107.70492 54 ft 2 kts 274°
2026-04-21 04:57 16.39819 107.70507 54 ft 2 kts 274°
2026-04-21 04:58 16.39818 107.70523 54 ft 2 kts 274°
2026-04-21 04:58 16.39818 107.70528 54 ft 0 kts 274°
2026-04-21 05:00 16.39818 107.70526 54 ft 0 kts 274°
2026-04-21 05:01 16.39819 107.70513 54 ft 2 kts 274°
2026-04-21 05:01 16.39821 107.70487 54 ft 4 kts 274°
2026-04-21 05:01 16.39823 107.70448 54 ft 6 kts 273°
2026-04-21 05:01 16.39826 107.70398 54 ft 7 kts 273°
2026-04-21 05:02 16.39829 107.70335 54 ft 9 kts 273°
2026-04-21 05:02 16.39839 107.70263 54 ft 10 kts 304°
2026-04-21 05:02 16.39913 107.70244 54 ft 12 kts
2026-04-21 05:02 16.40002 107.70249 54 ft 13 kts
2026-04-21 05:03 16.40071 107.70205 54 ft 14 kts 276°
2026-04-21 05:03 16.40077 107.70099 54 ft 15 kts 273°
2026-04-21 05:03 16.40083 107.69987 54 ft 15 kts 274°
2026-04-21 05:03 16.40090 107.69871 54 ft 16 kts 273°
2026-04-21 05:04 16.40096 107.69750 54 ft 17 kts 273°
2026-04-21 05:04 16.40103 107.69624 54 ft 17 kts 274°
2026-04-21 05:04 16.40110 107.69495 54 ft 18 kts 273°
2026-04-21 05:04 16.40116 107.69363 54 ft 17 kts 273°
2026-04-21 05:05 16.40121 107.69275 54 ft 9 kts 273°
2026-04-21 05:05 16.40101 107.69202 54 ft 11 kts 234°
2026-04-21 05:05 16.40084 107.69140 54 ft 9 kts 303°
2026-04-21 05:05 16.40130 107.69161 54 ft 11 kts 95°
2026-04-21 05:06 16.40124 107.69207 54 ft 0 kts 93°
2026-04-21 05:06 16.40124 107.69209 54 ft 3 kts 93°
2026-04-21 05:06 16.40111 107.69456 54 ft 69 kts 93°
2026-04-21 05:07 16.40072 107.70190 54 ft 129 kts 93°
2026-04-21 05:07 16.40014 107.71302 140 ft 168 kts 92°
2026-04-21 05:07 16.39948 107.72523 632 ft 172 kts 92°
2026-04-21 05:07 16.39889 107.73748 1301 ft 170 kts 92°
2026-04-21 05:08 16.39828 107.74955 1818 ft 171 kts 93°
2026-04-21 05:08 16.39762 107.76247 2106 ft 186 kts 94°
2026-04-21 05:08 16.39689 107.77641 2425 ft 200 kts 95°
2026-04-21 05:08 16.39606 107.79141 2724 ft 217 kts 94°
2026-04-21 05:09 16.39512 107.80802 2993 ft 237 kts 94°
2026-04-21 05:09 16.39417 107.82560 3478 ft 249 kts 95°
2026-04-21 05:09 16.39354 107.84345 4200 ft 251 kts 87°
2026-04-21 05:09 16.39929 107.86073 4838 ft 258 kts 53°
2026-04-21 05:10 16.41311 107.87231 5532 ft 261 kts 22°
2026-04-21 05:10 16.43071 107.87534 6213 ft 263 kts 353°
2026-04-21 05:10 16.44880 107.87220 6946 ft 265 kts 347°
2026-04-21 05:10 16.46666 107.86848 7652 ft 268 kts 348°
2026-04-21 05:11 16.48489 107.86484 8381 ft 270 kts 348°
2026-04-21 05:11 16.50345 107.86134 9094 ft 272 kts 349°
2026-04-21 05:11 16.52208 107.85790 9782 ft 275 kts 349°
2026-04-21 05:11 16.54048 107.85299 10436 ft 277 kts 333°
2026-04-21 05:12 16.55523 107.84056 11063 ft 278 kts 305°
2026-04-21 05:12 16.56284 107.82222 11669 ft 280 kts 279°
2026-04-21 05:12 16.56465 107.80223 12289 ft 282 kts 273°
2026-04-21 05:12 16.56576 107.78186 12891 ft 285 kts 273°
2026-04-21 05:13 16.56697 107.76097 13490 ft 288 kts 274°
2026-04-21 05:13 16.56751 107.74026 14041 ft 292 kts 263°
2026-04-21 05:13 16.56082 107.72005 14321 ft 305 kts 236°
2026-04-21 05:13 16.54517 107.70470 14559 ft 319 kts 208°
2026-04-21 05:14 16.52386 107.69700 14827 ft 332 kts 194°
2026-04-21 05:14 16.50106 107.69111 15073 ft 345 kts 194°
2026-04-21 05:14 16.47758 107.68501 15306 ft 358 kts 194°
2026-04-21 05:14 16.45312 107.67843 15622 ft 368 kts 195°
2026-04-21 05:15 16.42806 107.67153 16134 ft 372 kts 195°
2026-04-21 05:15 16.40329 107.66466 16670 ft 374 kts 195°
2026-04-21 05:15 16.37827 107.65772 17179 ft 376 kts 195°
2026-04-21 05:15 16.35290 107.65067 17678 ft 379 kts 195°
2026-04-21 05:16 16.32731 107.64352 18160 ft 382 kts 195°
2026-04-21 05:16 16.30192 107.63644 18611 ft 385 kts 195°
2026-04-21 05:16 16.27583 107.62917 19053 ft 388 kts 195°
2026-04-21 05:16 16.24965 107.62189 19477 ft 391 kts 195°
2026-04-21 05:17 16.22348 107.61460 19890 ft 394 kts 195°
2026-04-21 05:17 16.19686 107.60721 20300 ft 397 kts 195°
2026-04-21 05:17 16.17010 107.60146 20670 ft 401 kts 185°
2026-04-21 05:17 16.14205 107.60334 21031 ft 405 kts 167°
2026-04-21 05:18 16.06567 107.64112 22166 ft 413 kts 151°
2026-04-21 05:18 16.04030 107.65534 22518 ft 416 kts 152°
2026-04-21 05:19 16.01491 107.66947 22868 ft 419 kts 152°
2026-04-21 05:19 15.98893 107.68381 23211 ft 421 kts 152°
2026-04-21 05:19 15.96300 107.69804 23545 ft 424 kts 152°
2026-04-21 05:19 15.93694 107.71232 23875 ft 427 kts 152°
2026-04-21 05:20 15.91062 107.72671 24192 ft 429 kts 152°
2026-04-21 05:20 15.88415 107.74115 24509 ft 432 kts 152°
2026-04-21 05:20 15.85767 107.75552 24825 ft 434 kts 152°
2026-04-21 05:20 15.83094 107.77003 25136 ft 436 kts 152°
2026-04-21 05:21 15.80410 107.78462 25439 ft 438 kts 152°
2026-04-21 05:21 15.77710 107.79929 25736 ft 440 kts 152°
2026-04-21 05:21 15.75012 107.81397 26011 ft 442 kts 152°
2026-04-21 05:21 15.72293 107.82876 26279 ft 444 kts 152°
2026-04-21 05:22 15.69543 107.84372 26556 ft 446 kts 152°
2026-04-21 05:22 15.66781 107.85875 26830 ft 448 kts 152°
2026-04-21 05:22 15.64054 107.87358 27093 ft 450 kts 152°
2026-04-21 05:22 15.61275 107.88869 27353 ft 452 kts 152°
2026-04-21 05:23 15.58501 107.90376 27612 ft 453 kts 152°
2026-04-21 05:23 15.55706 107.91895 27862 ft 455 kts 152°
2026-04-21 05:23 15.52916 107.93411 28090 ft 457 kts 152°
2026-04-21 05:23 15.50074 107.94954 28331 ft 459 kts 152°
2026-04-21 05:24 15.47257 107.96483 28573 ft 461 kts 152°
2026-04-21 05:24 15.44429 107.98018 28813 ft 463 kts 152°
2026-04-21 05:24 15.41577 107.99565 29061 ft 464 kts 152°
2026-04-21 05:24 15.38716 108.01116 29393 ft 463 kts 153°
2026-04-21 05:25 15.35872 108.02658 29749 ft 462 kts 153°
2026-04-21 05:25 15.33065 108.04179 30075 ft 461 kts 153°
2026-04-21 05:25 15.30222 108.05718 30373 ft 461 kts 153°
2026-04-21 05:25 15.27379 108.07257 30605 ft 463 kts 152°
2026-04-21 05:26 15.24532 108.08797 30822 ft 464 kts 152°
2026-04-21 05:26 15.21693 108.10332 31060 ft 466 kts 152°
2026-04-21 05:26 15.18825 108.11884 31290 ft 467 kts 152°
2026-04-21 05:26 15.15940 108.13418 31502 ft 469 kts 154°
2026-04-21 05:27 15.12940 108.14771 31724 ft 470 kts 159°
2026-04-21 05:27 15.09884 108.15855 31931 ft 471 kts 164°
2026-04-21 05:27 15.03467 108.17239 32000 ft 472 kts 175°
2026-04-21 05:28 14.96916 108.17348 32009 ft 471 kts 182°
2026-04-21 05:28 14.90382 108.17203 32010 ft 471 kts 182°
2026-04-21 05:29 14.83849 108.17082 32010 ft 472 kts 181°
2026-04-21 05:29 14.77311 108.16979 32010 ft 472 kts 181°
2026-04-21 05:30 14.70762 108.16881 32010 ft 472 kts 181°
2026-04-21 05:30 14.64211 108.16785 32010 ft 472 kts 181°
2026-04-21 05:31 14.57689 108.16690 32010 ft 472 kts 181°
2026-04-21 05:31 14.51133 108.16595 32010 ft 472 kts 181°
2026-04-21 05:32 14.44575 108.16500 32010 ft 472 kts 181°
2026-04-21 05:32 14.38018 108.16406 32010 ft 472 kts 181°
2026-04-21 05:33 14.31488 108.16312 32011 ft 472 kts 181°
2026-04-21 05:33 14.24925 108.16193 32010 ft 472 kts 182°
2026-04-21 05:34 14.18395 108.16031 32010 ft 472 kts 182°
2026-04-21 05:34 14.11844 108.15873 32010 ft 472 kts 182°
2026-04-21 05:35 14.05275 108.15720 32010 ft 472 kts 182°
2026-04-21 05:35 13.98741 108.15569 32010 ft 472 kts 182°
2026-04-21 05:36 13.92177 108.15411 32010 ft 472 kts 182°
2026-04-21 05:36 13.85764 108.15260 32010 ft 472 kts 182°
2026-04-21 05:37 13.79205 108.15108 32010 ft 472 kts 182°
2026-04-21 05:37 13.72670 108.14956 32010 ft 472 kts 182°
2026-04-21 05:38 13.66158 108.14806 32010 ft 472 kts 182°
2026-04-21 05:38 13.59609 108.14654 32010 ft 472 kts 182°
2026-04-21 05:39 13.53069 108.14503 32010 ft 472 kts 181°
2026-04-21 05:39 13.46523 108.14353 32010 ft 472 kts 181°
2026-04-21 05:40 13.40010 108.14204 32011 ft 471 kts 181°
2026-04-21 05:40 13.33477 108.14053 32010 ft 471 kts 181°
2026-04-21 05:41 13.26927 108.13898 32011 ft 470 kts 181°
2026-04-21 05:41 13.20443 108.13745 32010 ft 470 kts 181°
2026-04-21 05:42 13.13941 108.13594 32010 ft 470 kts 181°
2026-04-21 05:42 13.07399 108.13443 32010 ft 470 kts 181°
2026-04-21 05:43 13.00892 108.13293 32010 ft 469 kts 181°
2026-04-21 05:43 12.94410 108.13143 32010 ft 469 kts 181°
2026-04-21 05:44 12.87897 108.12994 32011 ft 469 kts 181°
2026-04-21 05:44 12.81371 108.12844 32010 ft 468 kts 181°
2026-04-21 05:45 12.74908 108.12697 32010 ft 468 kts 181°
2026-04-21 05:45 12.68430 108.12549 32010 ft 468 kts 181°
2026-04-21 05:46 12.61942 108.12398 32010 ft 468 kts 181°
2026-04-21 05:46 12.55444 108.12246 32001 ft 469 kts 181°
2026-04-21 05:47 12.48916 108.12096 31963 ft 469 kts 181°
2026-04-21 05:47 12.42423 108.11947 31940 ft 470 kts 181°
2026-04-21 05:48 12.35907 108.11797 31929 ft 469 kts 181°
2026-04-21 05:48 12.29400 108.11649 31924 ft 469 kts 181°
2026-04-21 05:49 12.22889 108.11500 31922 ft 469 kts 181°
2026-04-21 05:49 12.16412 108.11353 31922 ft 469 kts 181°
2026-04-21 05:50 12.09883 108.11204 31922 ft 469 kts 181°
2026-04-21 05:50 12.03422 108.11059 31922 ft 469 kts 181°
2026-04-21 05:51 11.96915 108.10908 31416 ft 469 kts 182°
2026-04-21 05:51 11.93674 108.10508 30378 ft 476 kts 193°
2026-04-21 05:51 11.90554 108.09420 29269 ft 482 kts 206°
2026-04-21 05:52 11.88922 108.08524 28693 ft 484 kts 212°
2026-04-21 05:52 11.86215 108.06542 27911 ft 481 kts 218°
2026-04-21 05:52 11.83595 108.04441 27335 ft 475 kts 219°
2026-04-21 05:52 11.81039 108.02362 26791 ft 469 kts 219°
2026-04-21 05:53 11.78526 108.00321 26263 ft 463 kts 219°
2026-04-21 05:53 11.76001 107.98282 25739 ft 458 kts 218°
2026-04-21 05:53 11.73549 107.96311 25230 ft 453 kts 218°
2026-04-21 05:53 11.71073 107.94327 24709 ft 448 kts 218°
2026-04-21 05:54 11.68638 107.92381 24190 ft 443 kts 218°
2026-04-21 05:54 11.66241 107.90466 23672 ft 439 kts 218°
2026-04-21 05:54 11.63845 107.88556 23176 ft 435 kts 218°
2026-04-21 05:54 11.61478 107.86670 22695 ft 430 kts 218°
2026-04-21 05:55 11.59145 107.84810 22223 ft 426 kts 218°
2026-04-21 05:55 11.56835 107.82970 21760 ft 421 kts 218°
2026-04-21 05:55 11.54571 107.81165 21302 ft 417 kts 218°
2026-04-21 05:55 11.52290 107.79349 20833 ft 413 kts 218°
2026-04-21 05:56 11.50044 107.77560 20372 ft 409 kts 218°
2026-04-21 05:56 11.47813 107.75784 19914 ft 405 kts 218°
2026-04-21 05:56 11.45600 107.74023 19449 ft 402 kts 218°
2026-04-21 05:56 11.43437 107.72301 18997 ft 398 kts 218°
2026-04-21 05:57 11.41248 107.70559 18537 ft 395 kts 218°
2026-04-21 05:57 11.39125 107.68870 18090 ft 391 kts 218°
2026-04-21 05:57 11.36990 107.67172 17639 ft 388 kts 218°
2026-04-21 05:57 11.34876 107.65490 17183 ft 385 kts 218°
2026-04-21 05:58 11.32764 107.63809 16715 ft 382 kts 218°
2026-04-21 05:58 11.30689 107.62160 16255 ft 379 kts 218°
2026-04-21 05:58 11.28624 107.60518 15790 ft 377 kts 218°
2026-04-21 05:58 11.26704 107.58697 15365 ft 373 kts 227°
2026-04-21 05:59 11.25036 107.56713 14995 ft 368 kts 230°
2026-04-21 05:59 11.23418 107.54720 14582 ft 365 kts 230°
2026-04-21 05:59 11.21796 107.52745 14152 ft 363 kts 229°
2026-04-21 06:00 11.18551 107.48882 13269 ft 359 kts 229°
2026-04-21 06:00 11.16933 107.46983 12828 ft 357 kts 228°
2026-04-21 06:00 11.15308 107.45081 12385 ft 355 kts 228°
2026-04-21 06:00 11.13676 107.43174 11936 ft 353 kts 228°
2026-04-21 06:01 11.12082 107.41316 11499 ft 351 kts 228°
2026-04-21 06:01 11.10477 107.39445 11057 ft 350 kts 228°
2026-04-21 06:01 11.08897 107.37604 10621 ft 348 kts 229°
2026-04-21 06:01 11.07312 107.35757 10254 ft 343 kts 229°
2026-04-21 06:02 11.05777 107.33947 10156 ft 329 kts 231°
2026-04-21 06:02 11.04583 107.32018 10019 ft 316 kts 244°
2026-04-21 06:02 11.03711 107.30026 9862 ft 306 kts 247°
2026-04-21 06:02 11.02878 107.28040 9459 ft 305 kts 247°
2026-04-21 06:03 11.02016 107.26070 9091 ft 302 kts 246°
2026-04-21 06:03 11.01137 107.24137 8736 ft 300 kts 245°
2026-04-21 06:03 11.00259 107.22248 8397 ft 297 kts 245°
2026-04-21 06:03 10.99406 107.20359 8060 ft 294 kts 247°
2026-04-21 06:04 10.98609 107.18438 7727 ft 291 kts 248°
2026-04-21 06:04 10.97842 107.16550 7400 ft 288 kts 248°
2026-04-21 06:04 10.97087 107.14701 7079 ft 285 kts 247°
2026-04-21 06:04 10.96323 107.12846 6760 ft 282 kts 248°
2026-04-21 06:05 10.95563 107.11013 6452 ft 279 kts 248°
2026-04-21 06:05 10.95067 107.09805 6243 ft 277 kts 247°
2026-04-21 06:05 10.94074 107.07401 5819 ft 275 kts 246°
2026-04-21 06:05 10.93334 107.05618 5507 ft 272 kts 247°
2026-04-21 06:06 10.92608 107.03870 5202 ft 270 kts 247°
2026-04-21 06:06 10.91875 107.02096 4894 ft 268 kts 246°
2026-04-21 06:06 10.91156 107.00375 4589 ft 267 kts 246°
2026-04-21 06:06 10.90451 106.98675 4508 ft 254 kts 246°
2026-04-21 06:07 10.89770 106.97020 4439 ft 253 kts 249°
2026-04-21 06:07 10.89359 106.95274 4075 ft 254 kts 263°
2026-04-21 06:07 10.89195 106.93505 3902 ft 249 kts 264°
2026-04-21 06:07 10.89051 106.91748 3712 ft 248 kts 263°
2026-04-21 06:08 10.88882 106.90021 3498 ft 248 kts 263°
2026-04-21 06:08 10.88755 106.88255 3191 ft 247 kts 266°
2026-04-21 06:08 10.88661 106.86532 2892 ft 245 kts 265°
2026-04-21 06:08 10.88567 106.84808 2598 ft 242 kts 265°
2026-04-21 06:09 10.88465 106.83131 2476 ft 231 kts 262°
2026-04-21 06:09 10.88157 106.81539 2473 ft 229 kts 253°
2026-04-21 06:09 10.87658 106.79987 2474 ft 229 kts 248°
2026-04-21 06:09 10.87095 106.78492 2439 ft 226 kts 247°
2026-04-21 06:10 10.86527 106.77026 2294 ft 216 kts 246°
2026-04-21 06:10 10.85996 106.75635 2006 ft 204 kts 248°
2026-04-21 06:10 10.85506 106.74333 1757 ft 190 kts 248°
2026-04-21 06:10 10.85054 106.73129 1488 ft 178 kts 247°
2026-04-21 06:11 10.84629 106.72001 1231 ft 164 kts 247°
2026-04-21 06:11 10.84234 106.70952 1000 ft 154 kts 246°
2026-04-21 06:11 10.83844 106.69931 787 ft 156 kts 248°
2026-04-21 06:11 10.83455 106.68903 616 ft 157 kts 248°
2026-04-21 06:12 10.83073 106.67860 406 ft 156 kts 247°
2026-04-21 06:12 10.82681 106.66832 184 ft 156 kts 247°
2026-04-21 06:12 10.82302 106.65827 42 ft 143 kts 248°
2026-04-21 06:12 10.82003 106.65044 42 ft 95 kts 248°
2026-04-21 06:13 10.81839 106.64610 42 ft 37 kts 248°
2026-04-21 06:13 10.81736 106.64411 42 ft 30 kts 227°
2026-04-21 06:13 10.81567 106.64299 42 ft 28 kts 186°
2026-04-21 06:13 10.81385 106.64350 42 ft 26 kts 159°
2026-04-21 06:14 10.81246 106.64419 42 ft 15 kts 128°
2026-04-21 06:14 10.81219 106.64526 42 ft 16 kts 99°
2026-04-21 06:14 10.81210 106.64642 42 ft 16 kts 77°
2026-04-21 06:14 10.81250 106.64752 42 ft 17 kts 70°
2026-04-21 06:15 10.81293 106.64870 42 ft 17 kts 68°
2026-04-21 06:15 10.81338 106.64988 42 ft 18 kts 70°
2026-04-21 06:15 10.81384 106.65108 42 ft 18 kts 68°
2026-04-21 06:15 10.81431 106.65232 42 ft 18 kts 70°
2026-04-21 06:16 10.81477 106.65356 42 ft 19 kts 68°
2026-04-21 06:16 10.81526 106.65485 42 ft 19 kts 70°
2026-04-21 06:16 10.81575 106.65613 42 ft 18 kts 68°
2026-04-21 06:16 10.81611 106.65707 42 ft 13 kts 69°
2026-04-21 06:17 10.81609 106.65779 42 ft 11 kts 134°
2026-04-21 06:17 10.81530 106.65791 42 ft 12 kts 185°
2026-04-21 06:17 10.81463 106.65784 42 ft 7 kts 185°
2026-04-21 06:17 10.81432 106.65794 42 ft 5 kts 124°
2026-04-21 06:18 10.81421 106.65833 42 ft 6 kts 95°
2026-04-21 06:18 10.81419 106.65862 42 ft 0 kts 95°